TimeEST,TemperatureF,Dew PointF,Humidity,Sea Level PressureIn,VisibilityMPH,Wind Direction,Wind SpeedMPH,Gust SpeedMPH,PrecipitationIn,Events,Conditions,WindDirDegrees,DateUTC
8:35 AM,66.2,60.8,83,30.12,10.0,NE,6.9,-,N/A,,Overcast,50,2012-12-06 13:35:00
8:55 AM,68.0,60.8,78,30.13,10.0,NE,9.2,-,N/A,,Overcast,50,2012-12-06 13:55:00
9:15 AM,68.0,59.0,73,30.13,10.0,NE,9.2,-,N/A,,Overcast,50,2012-12-06 14:15:00
9:35 AM,68.0,59.0,73,30.13,10.0,NE,8.1,-,N/A,,Overcast,50,2012-12-06 14:35:00
9:55 AM,69.8,59.0,68,30.13,10.0,NE,8.1,-,N/A,,Overcast,50,2012-12-06 14:55:00
10:15 AM,69.8,60.8,73,30.14,10.0,NE,5.8,-,N/A,,Overcast,40,2012-12-06 15:15:00
10:35 AM,69.8,62.6,78,30.13,10.0,NNE,11.5,-,N/A,,Overcast,20,2012-12-06 15:35:00
10:55 AM,69.8,62.6,78,30.13,10.0,NNE,9.2,16.1,N/A,,Overcast,20,2012-12-06 15:55:00
11:15 AM,69.8,62.6,78,30.13,10.0,NNE,10.4,-,N/A,,Overcast,30,2012-12-06 16:15:00
11:35 AM,69.8,64.4,83,30.13,10.0,NE,10.4,-,N/A,,Overcast,40,2012-12-06 16:35:00
11:55 AM,71.6,64.4,78,30.12,10.0,NE,11.5,-,N/A,,Overcast,40,2012-12-06 16:55:00
12:15 PM,69.8,62.6,78,30.11,10.0,NE,11.5,17.3,N/A,,Overcast,50,2012-12-06 17:15:00
12:35 PM,69.8,62.6,78,30.10,10.0,ENE,10.4,16.1,N/A,Thunderstorm,Overcast,60,2012-12-06 17:35:00
12:55 PM,69.8,62.6,78,30.09,10.0,NE,10.4,-,N/A,Thunderstorm,Mostly Cloudy,40,2012-12-06 17:55:00
1:15 PM,71.6,62.6,73,30.09,10.0,ENE,9.2,-,N/A,,Overcast,60,2012-12-06 18:15:00
1:35 PM,71.6,62.6,73,30.08,10.0,NE,8.1,-,N/A,,Overcast,40,2012-12-06 18:35:00
1:55 PM,69.8,62.6,78,30.08,10.0,NNE,10.4,-,N/A,,Overcast,20,2012-12-06 18:55:00
2:15 PM,69.8,62.6,78,30.07,10.0,NNE,9.2,-,N/A,,Overcast,30,2012-12-06 19:15:00
2:35 PM,69.8,62.6,78,30.07,10.0,NE,10.4,16.1,N/A,,Overcast,40,2012-12-06 19:35:00
2:55 PM,69.8,62.6,78,30.07,10.0,NE,11.5,-,N/A,,Overcast,40,2012-12-06 19:55:00
3:15 PM,68.0,60.8,78,30.08,10.0,NNE,11.5,-,N/A,,Overcast,30,2012-12-06 20:15:00
3:35 PM,68.0,60.8,78,30.08,10.0,NNE,9.2,-,N/A,,Overcast,20,2012-12-06 20:35:00
3:55 PM,66.2,60.8,83,30.08,10.0,NNE,10.4,16.1,N/A,,Overcast,30,2012-12-06 20:55:00
4:15 PM,64.4,60.8,88,30.08,10.0,NE,11.5,21.9,N/A,,Overcast,40,2012-12-06 21:15:00
4:35 PM,64.4,60.8,88,30.08,10.0,NNE,10.4,-,N/A,,Overcast,30,2012-12-06 21:35:00
4:55 PM,64.4,60.8,88,30.08,10.0,NNE,10.4,-,N/A,,Overcast,30,2012-12-06 21:55:00
5:15 PM,64.4,60.8,88,30.08,10.0,NNE,8.1,18.4,N/A,,Overcast,30,2012-12-06 22:15:00
5:35 PM,64.4,60.8,88,30.08,10.0,NE,8.1,-,N/A,,Overcast,40,2012-12-06 22:35:00
5:55 PM,62.6,60.8,94,30.08,10.0,NE,8.1,17.3,N/A,,Overcast,50,2012-12-06 22:55:00
6:15 PM,62.6,60.8,94,30.09,10.0,ENE,11.5,17.3,N/A,,Overcast,60,2012-12-06 23:15:00
6:35 PM,62.6,60.8,94,30.09,10.0,NE,12.7,17.3,N/A,,Overcast,40,2012-12-06 23:35:00
6:55 PM,62.6,60.8,94,30.10,10.0,NE,10.4,-,N/A,,Overcast,40,2012-12-06 23:55:00
7:15 PM,62.6,60.8,94,30.10,10.0,NE,13.8,19.6,N/A,,Overcast,40,2012-12-07 00:15:00
7:35 PM,62.6,60.8,94,30.10,10.0,NE,9.2,-,N/A,,Overcast,40,2012-12-07 00:35:00
7:55 PM,62.6,60.8,94,30.09,10.0,NE,13.8,17.3,N/A,,Overcast,40,2012-12-07 00:55:00
8:15 PM,62.6,60.8,94,30.10,10.0,NE,9.2,-,N/A,,Overcast,40,2012-12-07 01:15:00
8:35 PM,62.6,60.8,94,30.10,10.0,NE,12.7,18.4,N/A,,Overcast,40,2012-12-07 01:35:00
8:55 PM,62.6,60.8,94,30.11,10.0,NE,12.7,20.7,N/A,Thunderstorm,Overcast,40,2012-12-07 01:55:00
9:15 PM,62.6,60.8,94,30.10,10.0,NE,13.8,18.4,N/A,,Overcast,40,2012-12-07 02:15:00
9:35 PM,62.6,59.0,88,30.10,10.0,NE,13.8,20.7,N/A,,Overcast,40,2012-12-07 02:35:00
9:55 PM,62.6,59.0,88,30.09,10.0,NNE,12.7,19.6,N/A,,Overcast,30,2012-12-07 02:55:00
10:15 PM,62.6,59.0,88,30.08,10.0,NE,11.5,18.4,N/A,,Overcast,40,2012-12-07 03:15:00
10:35 PM,62.6,59.0,88,30.08,7.0,NE,11.5,-,N/A,,Overcast,40,2012-12-07 03:35:00
10:55 PM,62.6,59.0,88,30.09,10.0,NE,9.2,17.3,N/A,,Overcast,40,2012-12-07 03:55:00
11:15 PM,62.6,59.0,88,30.09,10.0,NE,11.5,-,N/A,,Overcast,50,2012-12-07 04:15:00
11:35 PM,62.6,59.0,88,30.08,10.0,NE,9.2,16.1,N/A,,Overcast,40,2012-12-07 04:35:00
11:55 PM,62.6,59.0,88,30.07,10.0,NE,10.4,18.4,N/A,,Overcast,40,2012-12-07 04:55:00